This is the latest recevied weather packets stored in our database for station/object ES0THZ-13. If no packets are shown the sender has not sent any weather packets the latest 1 day(s).
| Time | Temp. | Humidity | Pressure | Rain* | Wind** | Luminosity | Snow |
|---|---|---|---|---|---|---|---|
| 1778099821 | 6.67° C | 62% | 1007.4 hPa | - | - | - | - |
| 1778097761 | 7.22° C | 61% | 1008.7 hPa | - | - | - | - |
| 1778085706 | 10° C | 59% | 1008.1 hPa | - | - | - | - |
| 1778079161 | 12.22° C | 59% | 1008.1 hPa | - | - | - | - |
| 1778069481 | 13.89° C | 61% | 1009.3 hPa | - | - | - | - |
| 1778062091 | 14.44° C | 60% | 1009.4 hPa | - | - | - | - |
| 1778060026 | 13.89° C | 60% | 1009.8 hPa | - | - | - | - |
| 1778058981 | 15° C | 58% | 1009.8 hPa | - | - | - | - |
| 1778057871 | 15.56° C | 57% | 1008.7 hPa | - | - | - | - |
| 1778056881 | 14.44° C | 58% | 1009.1 hPa | - | - | - | - |
| 1778055826 | 14.44° C | 60% | 1009.2 hPa | - | - | - | - |
| 1778054756 | 13.33° C | 61% | 1008.9 hPa | - | - | - | - |
| 1778053616 | 12.78° C | 63% | 1008.7 hPa | - | - | - | - |
| 1778051511 | 12.22° C | 66% | 1009.5 hPa | - | - | - | - |
| 1778047091 | 11.67° C | 73% | 1008.5 hPa | - | - | - | - |
| 1778045016 | 11.11° C | 75% | 1007.5 hPa | - | - | - | - |
| 1778043896 | 11.11° C | 76% | 1008.3 hPa | - | - | - | - |
| 1778042771 | 10° C | 77% | 1009 hPa | - | - | - | - |
| 1778041721 | 9.44° C | 78% | 1008.7 hPa | - | - | - | - |
| 1778040681 | 9.44° C | 79% | 1007.2 hPa | - | - | - | - |
| 1778038581 | 7.22° C | 80% | 1007.7 hPa | - | - | - | - |
| 1778037441 | 5.56° C | 81% | 1006.3 hPa | - | - | - | - |
| 1778036401 | 4.44° C | 81% | 1007 hPa | - | - | - | - |
| 1778035256 | 3.89° C | 82% | 1006.9 hPa | - | - | - | - |
| 1778034111 | 3.33° C | 83% | 1007.7 hPa | - | - | - | - |
* Rain since midnight (hover to see other rain measurements)
** Current wind speed in m/s (hover to see current wind gust speed)